,,,PA_Meas_PMT16A,,PR_Meas_QMR101_102,,RH_Meas_QMH101,,SR_Meas_QMS101,,TA_Meas_QMH101,,GenWind,,GenWind,
date,time,status,PA,status,PR,status,RH,status,SR,status,TA,status,DirAvg,status,SpdAvg,
2008-12-23, 00:00:04,VALID,1008.43,VALID,0,VALID,95.2457,VALID,0,VALID,23.2476,VALID,34,VALID,0,
2008-12-23, 00:01:04,VALID,1008.43,VALID,0,VALID,95.2533,VALID,0,VALID,23.2264,VALID,34,VALID,0,
2008-12-23, 00:02:04,VALID,1008.44,VALID,0,VALID,95.2609,VALID,0,VALID,23.2654,VALID,34,VALID,0,
2008-12-23, 00:03:04,VALID,1008.43,VALID,0,VALID,95.2838,VALID,0,VALID,23.2654,VALID,34,VALID,0,
2008-12-23, 00:04:04,VALID,1008.43,VALID,0,VALID,95.2914,VALID,0,VALID,23.2848,VALID,34,VALID,0,
2008-12-23, 00:05:04,VALID,1008.4,VALID,0,VALID,95.2762,VALID,0,VALID,23.2848,VALID,34,VALID,0,
2008-12-23, 00:06:04,VALID,1008.41,VALID,0,VALID,95.2762,VALID,0,VALID,23.2848,VALID,34,VALID,0,
2008-12-23, 00:07:04,VALID,1008.42,VALID,0,VALID,95.2838,VALID,0,VALID,23.2476,VALID,34,VALID,0,
2008-12-23, 00:08:04,VALID,1008.38,VALID,0,VALID,95.2609,VALID,0,VALID,23.2264,VALID,34,VALID,0,
2008-12-23, 00:09:04,VALID,1008.38,VALID,0,VALID,95.2914,VALID,0,VALID,23.2264,VALID,34,VALID,0,
2008-12-23, 00:10:04,VALID,1008.38,VALID,0,VALID,95.2685,VALID,0,VALID,23.2476,VALID,34,VALID,0,
2008-12-23, 00:11:04,VALID,1008.36,VALID,0,VALID,95.2762,VALID,0,VALID,23.2069,VALID,34,VALID,0,
2008-12-23, 00:12:04,VALID,1008.34,VALID,0,VALID,95.2838,VALID,0,VALID,23.1874,VALID,34,VALID,0,
2008-12-23, 00:13:04,VALID,1008.31,VALID,0,VALID,95.2685,VALID,0,VALID,23.1874,VALID,34,VALID,0,
2008-12-23, 00:14:04,VALID,1008.32,VALID,0,VALID,95.2838,VALID,0,VALID,23.2069,VALID,34,VALID,0,
2008-12-23, 00:15:04,VALID,1008.3,VALID,0,VALID,95.2762,VALID,0,VALID,23.2069,VALID,34,VALID,0,
2008-12-23, 00:16:04,VALID,1008.31,VALID,0,VALID,95.2838,VALID,0,VALID,23.2069,VALID,34,VALID,0,
2008-12-23, 00:17:04,VALID,1008.33,VALID,0,VALID,95.2914,VALID,0,VALID,23.1874,VALID,34,VALID,0,
2008-12-23, 00:18:04,VALID,1008.34,VALID,0,VALID,95.2838,VALID,0,VALID,23.1874,VALID,34,VALID,0,
2008-12-23, 00:19:04,VALID,1008.32,VALID,0,VALID,95.2838,VALID,0,VALID,23.1485,VALID,34,VALID,0,
2008-12-23, 00:20:04,VALID,1008.36,VALID,0,VALID,95.299,VALID,0,VALID,23.1485,VALID,34,VALID,0,
2008-12-23, 00:21:04,VALID,1008.34,VALID,0,VALID,95.299,VALID,0,VALID,23.129,VALID,34,VALID,0,
2008-12-23, 00:22:04,VALID,1008.32,VALID,0,VALID,95.3143,VALID,0,VALID,23.129,VALID,34,VALID,0,
2008-12-23, 00:23:04,VALID,1008.28,VALID,0,VALID,95.2914,VALID,0,VALID,23.129,VALID,34,VALID,0,
2008-12-23, 00:24:04,VALID,1008.26,VALID,0,VALID,95.3143,VALID,0,VALID,23.09,VALID,34,VALID,0,
2008-12-23, 00:25:04,VALID,1008.24,VALID,0,VALID,95.2838,VALID,0,VALID,23.1095,VALID,34,VALID,0,
2008-12-23, 00:26:04,VALID,1008.21,VALID,0,VALID,95.299,VALID,0,VALID,23.09,VALID,34,VALID,0,
2008-12-23, 00:27:04,VALID,1008.18,VALID,0,VALID,95.299,VALID,0,VALID,23.09,VALID,34,VALID,0,
2008-12-23, 00:28:04,VALID,1008.18,VALID,0,VALID,95.3067,VALID,0,VALID,23.09,VALID,34,VALID,0,
2008-12-23, 00:29:04,VALID,1008.1,VALID,0,VALID,95.3143,VALID,0,VALID,23.09,VALID,34,VALID,0,
2008-12-23, 00:30:04,VALID,1008.12,VALID,0,VALID,95.3143,VALID,0,VALID,23.1095,VALID,34,VALID,0,
2008-12-23, 00:31:04,VALID,1008.05,VALID,0,VALID,95.3372,VALID,0,VALID,23.1095,VALID,34,VALID,0,
2008-12-23, 00:32:04,VALID,1008.06,VALID,0,VALID,95.3295,VALID,0,VALID,23.1485,VALID,34,VALID,0,
2008-12-23, 00:33:04,VALID,1008.04,VALID,0,VALID,95.3372,VALID,0,VALID,23.129,VALID,34,VALID,0,
2008-12-23, 00:34:04,VALID,1008.02,VALID,0,VALID,95.3143,VALID,0,VALID,23.1095,VALID,34,VALID,0,
2008-12-23, 00:35:04,VALID,1008.02,VALID,0,VALID,95.3372,VALID,0,VALID,23.1095,VALID,34,VALID,0,
2008-12-23, 00:36:04,VALID,1007.99,VALID,0,VALID,95.3372,VALID,0,VALID,23.129,VALID,34,VALID,0,
2008-12-23, 00:37:04,VALID,1007.96,VALID,0,VALID,95.3372,VALID,0,VALID,23.129,VALID,34,VALID,0,
2008-12-23, 00:38:04,VALID,1007.93,VALID,0,VALID,95.3677,VALID,0,VALID,23.1502,VALID,34,VALID,0,
2008-12-23, 00:39:04,VALID,1007.94,VALID,0,VALID,95.3524,VALID,0,VALID,23.129,VALID,34,VALID,0,
2008-12-23, 00:40:04,VALID,1007.92,VALID,0,VALID,95.3524,VALID,0.105969,VALID,23.129,VALID,34,VALID,0,
2008-12-23, 00:41:04,VALID,1007.91,VALID,0,VALID,95.3524,VALID,0,VALID,23.0883,VALID,34,VALID,0,
2008-12-23, 00:42:04,VALID,1007.89,VALID,0,VALID,95.3524,VALID,0.105969,VALID,23.0688,VALID,34,VALID,0,
2008-12-23, 00:43:04,VALID,1007.87,VALID,0,VALID,95.3524,VALID,0.105969,VALID,23.0883,VALID,34,VALID,0,
2008-12-23, 00:44:04,VALID,1007.86,VALID,0,VALID,95.36,VALID,0.105969,VALID,23.0493,VALID,34,VALID,0,
2008-12-23, 00:45:04,VALID,1007.83,VALID,0,VALID,95.36,VALID,0.105969,VALID,23.0493,VALID,34,VALID,0,
2008-12-23, 00:46:04,VALID,1007.84,VALID,0,VALID,95.3524,VALID,0.105969,VALID,23.0298,VALID,34,VALID,0,
2008-12-23, 00:47:04,VALID,1007.81,VALID,0,VALID,95.3753,VALID,0.105969,VALID,23.0298,VALID,34,VALID,0,
2008-12-23, 00:48:04,VALID,1007.82,VALID,0,VALID,95.3677,VALID,0.105969,VALID,23.0298,VALID,34,VALID,0,
2008-12-23, 00:49:04,VALID,1007.8,VALID,0,VALID,95.3677,VALID,0.105969,VALID,23.0493,VALID,34,VALID,0,
2008-12-23, 00:50:04,VALID,1007.79,VALID,0,VALID,95.3905,VALID,0.105969,VALID,23.0493,VALID,34,VALID,0,
2008-12-23, 00:51:04,VALID,1007.77,VALID,0,VALID,95.3829,VALID,0.105969,VALID,23.1077,VALID,34,VALID,0,
2008-12-23, 00:52:04,VALID,1007.77,VALID,0,VALID,95.3905,VALID,0.105969,VALID,23.0883,VALID,34,VALID,0,
2008-12-23, 00:53:04,VALID,1007.75,VALID,0,VALID,95.3829,VALID,0.105969,VALID,23.1077,VALID,34,VALID,0,
2008-12-23, 00:54:04,VALID,1007.71,VALID,0,VALID,95.4058,VALID,0,VALID,23.0883,VALID,34,VALID,0,
2008-12-23, 00:55:04,VALID,1007.7,VALID,0,VALID,95.3982,VALID,0,VALID,23.0705,VALID,34,VALID,0,
2008-12-23, 00:56:04,VALID,1007.66,VALID,0,VALID,95.3982,VALID,0,VALID,23.0316,VALID,34,VALID,0,
2008-12-23, 00:57:04,VALID,1007.67,VALID,0,VALID,95.3982,VALID,0,VALID,23.0511,VALID,34,VALID,0,
2008-12-23, 00:58:04,VALID,1007.66,VALID,0,VALID,95.3905,VALID,0,VALID,23.0121,VALID,34,VALID,0,
2008-12-23, 00:59:04,VALID,1007.65,VALID,0,VALID,95.3905,VALID,0,VALID,22.9926,VALID,34,VALID,0,
2008-12-23, 01:00:04,VALID,1007.62,VALID,0,VALID,95.4058,VALID,0,VALID,22.9536,VALID,34,VALID,0,
2008-12-23, 01:01:04,VALID,1007.6,VALID,0,VALID,95.4058,VALID,0,VALID,22.9342,VALID,34,VALID,0,
2008-12-23, 01:02:04,VALID,1007.59,VALID,0,VALID,95.4058,VALID,0,VALID,22.9342,VALID,34,VALID,0,
2008-12-23, 01:03:04,VALID,1007.58,VALID,0,VALID,95.4211,VALID,0,VALID,22.9731,VALID,34,VALID,0,
2008-12-23, 01:04:04,VALID,1007.55,VALID,0,VALID,95.3905,VALID,0,VALID,22.9342,VALID,34,VALID,0,
2008-12-23, 01:05:04,VALID,1007.54,VALID,0,VALID,95.4211,VALID,0,VALID,22.9536,VALID,34,VALID,0,
2008-12-23, 01:06:04,VALID,1007.56,VALID,0,VALID,95.4134,VALID,0,VALID,22.9342,VALID,34,VALID,0,
2008-12-23, 01:07:04,VALID,1007.54,VALID,0,VALID,95.4363,VALID,0,VALID,22.9342,VALID,34,VALID,0,
2008-12-23, 01:08:04,VALID,1007.5,VALID,0,VALID,95.4134,VALID,0,VALID,22.9147,VALID,34,VALID,0,
2008-12-23, 01:09:04,VALID,1007.56,VALID,0,VALID,95.4211,VALID,0,VALID,22.8935,VALID,34,VALID,0,
2008-12-23, 01:10:04,VALID,1007.55,VALID,0,VALID,95.4211,VALID,0,VALID,22.9147,VALID,34,VALID,0,
2008-12-23, 01:11:04,VALID,1007.54,VALID,0,VALID,95.4287,VALID,0,VALID,22.8757,VALID,34,VALID,0,
2008-12-23, 01:12:04,VALID,1007.52,VALID,0,VALID,95.4134,VALID,0,VALID,22.8757,VALID,34,VALID,0,
2008-12-23, 01:13:04,VALID,1007.52,VALID,0,VALID,95.4058,VALID,0,VALID,22.7783,VALID,34,VALID,0,
2008-12-23, 01:14:04,VALID,1007.53,VALID,0,VALID,95.4211,VALID,0,VALID,22.7588,VALID,34,VALID,0,
2008-12-23, 01:15:04,VALID,1007.52,VALID,0,VALID,95.3982,VALID,0,VALID,22.7394,VALID,34,VALID,0,
2008-12-23, 01:16:04,VALID,1007.5,VALID,0,VALID,95.4134,VALID,0,VALID,22.7182,VALID,34,VALID,0,
2008-12-23, 01:17:04,VALID,1007.48,VALID,0,VALID,95.4134,VALID,0,VALID,22.6987,VALID,34,VALID,0,
2008-12-23, 01:18:04,VALID,1007.47,VALID,0,VALID,95.4211,VALID,0,VALID,22.7182,VALID,34,VALID,0,
2008-12-23, 01:19:04,VALID,1007.44,VALID,0,VALID,95.4287,VALID,0,VALID,22.7394,VALID,34,VALID,0,
2008-12-23, 01:20:04,VALID,1007.42,VALID,0,VALID,95.4211,VALID,0,VALID,22.7199,VALID,34,VALID,0,
2008-12-23, 01:21:04,VALID,1007.37,VALID,0,VALID,95.4363,VALID,0,VALID,22.7199,VALID,34,VALID,0,
2008-12-23, 01:22:04,VALID,1007.38,VALID,0,VALID,95.4134,VALID,0,VALID,22.6809,VALID,34,VALID,0,
2008-12-23, 01:23:04,VALID,1007.35,VALID,0,VALID,95.4134,VALID,0,VALID,22.6809,VALID,34,VALID,0,
2008-12-23, 01:24:04,VALID,1007.38,VALID,0,VALID,95.4439,VALID,0,VALID,22.6809,VALID,34,VALID,0,
2008-12-23, 01:25:04,VALID,1007.35,VALID,0,VALID,95.4363,VALID,0,VALID,22.6614,VALID,34,VALID,0,
2008-12-23, 01:26:04,VALID,1007.38,VALID,0,VALID,95.4516,VALID,0,VALID,22.6809,VALID,34,VALID,0,
2008-12-23, 01:27:04,VALID,1007.35,VALID,0,VALID,95.4439,VALID,0,VALID,22.6809,VALID,34,VALID,0,
2008-12-23, 01:28:04,VALID,1007.36,VALID,0,VALID,95.4363,VALID,0,VALID,22.6614,VALID,34,VALID,0,
2008-12-23, 01:29:04,VALID,1007.35,VALID,0,VALID,95.4439,VALID,0,VALID,22.6402,VALID,34,VALID,0,
2008-12-23, 01:30:04,VALID,1007.34,VALID,0,VALID,95.4592,VALID,0,VALID,22.6597,VALID,34,VALID,0,
2008-12-23, 01:31:04,VALID,1007.33,VALID,0,VALID,95.4592,VALID,0,VALID,22.6597,VALID,34,VALID,0,
2008-12-23, 01:32:04,VALID,1007.33,VALID,0,VALID,95.4592,VALID,0,VALID,22.7004,VALID,34,VALID,0,
2008-12-23, 01:33:04,VALID,1007.31,VALID,0,VALID,95.4592,VALID,0,VALID,22.6809,VALID,34,VALID,0,
2008-12-23, 01:34:04,VALID,1007.3,VALID,0,VALID,95.4668,VALID,0,VALID,22.6809,VALID,34,VALID,0,
2008-12-23, 01:35:04,VALID,1007.29,VALID,0,VALID,95.4592,VALID,0,VALID,22.6809,VALID,34,VALID,0,
2008-12-23, 01:36:04,VALID,1007.3,VALID,0,VALID,95.4821,VALID,0,VALID,22.6792,VALID,34,VALID,0,
2008-12-23, 01:37:04,VALID,1007.27,VALID,0,VALID,95.4744,VALID,0,VALID,22.6809,VALID,34,VALID,0,
2008-12-23, 01:38:04,VALID,1007.27,VALID,0,VALID,95.4744,VALID,0,VALID,22.6614,VALID,34,VALID,0,
2008-12-23, 01:39:04,VALID,1007.25,VALID,0,VALID,95.4821,VALID,0,VALID,22.642,VALID,34,VALID,0,
2008-12-23, 01:40:04,VALID,1007.27,VALID,0,VALID,95.4821,VALID,0,VALID,22.642,VALID,34,VALID,0,
2008-12-23, 01:41:04,VALID,1007.25,VALID,0,VALID,95.4668,VALID,0,VALID,22.6225,VALID,34,VALID,0,
2008-12-23, 01:42:04,VALID,1007.25,VALID,0,VALID,95.4744,VALID,0,VALID,22.5818,VALID,34,VALID,0,
2008-12-23, 01:43:04,VALID,1007.23,VALID,0,VALID,95.4821,VALID,0,VALID,22.5623,VALID,34,VALID,0,
2008-12-23, 01:44:04,VALID,1007.23,VALID,0,VALID,95.4973,VALID,0,VALID,22.5835,VALID,34,VALID,0,
2008-12-23, 01:45:04,VALID,1007.22,VALID,0,VALID,95.4973,VALID,0,VALID,22.5835,VALID,34,VALID,0,
2008-12-23, 01:46:04,VALID,1007.21,VALID,0,VALID,95.4973,VALID,0,VALID,22.603,VALID,34,VALID,0,
2008-12-23, 01:47:04,VALID,1007.24,VALID,0,VALID,95.4897,VALID,0,VALID,22.5818,VALID,34,VALID,0,
2008-12-23, 01:48:04,VALID,1007.24,VALID,0,VALID,95.5049,VALID,0,VALID,22.603,VALID,34,VALID,0,
2008-12-23, 01:49:04,VALID,1007.27,VALID,0,VALID,95.5126,VALID,0,VALID,22.5835,VALID,34,VALID,0,
2008-12-23, 01:50:04,VALID,1007.26,VALID,0,VALID,95.5126,VALID,0,VALID,22.5623,VALID,34,VALID,0,
2008-12-23, 01:51:04,VALID,1007.25,VALID,0,VALID,95.5202,VALID,0,VALID,22.5818,VALID,34,VALID,0,
2008-12-23, 01:52:04,VALID,1007.21,VALID,0,VALID,95.5126,VALID,0,VALID,22.603,VALID,34,VALID,0,
2008-12-23, 01:53:04,VALID,1007.27,VALID,0,VALID,95.5202,VALID,0,VALID,22.6225,VALID,34,VALID,0,
2008-12-23, 01:54:04,VALID,1007.27,VALID,0,VALID,95.5278,VALID,0,VALID,22.642,VALID,34,VALID,0,
2008-12-23, 01:55:04,VALID,1007.29,VALID,0,VALID,95.5126,VALID,0,VALID,22.6013,VALID,34,VALID,0,
2008-12-23, 01:56:04,VALID,1007.26,VALID,0,VALID,95.5202,VALID,0,VALID,22.603,VALID,34,VALID,0,
2008-12-23, 01:57:04,VALID,1007.26,VALID,0,VALID,95.5354,VALID,0,VALID,22.564,VALID,34,VALID,0,
2008-12-23, 01:58:04,VALID,1007.25,VALID,0,VALID,95.5354,VALID,0,VALID,22.564,VALID,34,VALID,0,
2008-12-23, 01:59:04,VALID,1007.2,VALID,0,VALID,95.5431,VALID,0,VALID,22.5251,VALID,34,VALID,0,
2008-12-23, 02:00:04,VALID,1007.19,VALID,0,VALID,95.5354,VALID,0,VALID,22.5234,VALID,34,VALID,0,
2008-12-23, 02:01:04,VALID,1007.2,VALID,0,VALID,95.5736,VALID,0,VALID,22.5251,VALID,34,VALID,0,
2008-12-23, 02:02:04,VALID,1007.2,VALID,0,VALID,95.5583,VALID,0,VALID,22.564,VALID,34,VALID,0,
2008-12-23, 02:03:04,VALID,1007.15,VALID,0,VALID,95.5736,VALID,0,VALID,22.6013,VALID,34,VALID,0,
2008-12-23, 02:04:04,VALID,1007.17,VALID,0,VALID,95.5812,VALID,0,VALID,22.642,VALID,34,VALID,0,
2008-12-23, 02:05:04,VALID,1007.14,VALID,0,VALID,95.5583,VALID,0,VALID,22.6809,VALID,34,VALID,0,
2008-12-23, 02:06:04,VALID,1007.14,VALID,0,VALID,95.5583,VALID,0,VALID,22.7004,VALID,34,VALID,0,
2008-12-23, 02:07:04,VALID,1007.14,VALID,0,VALID,95.5736,VALID,0,VALID,22.7394,VALID,34,VALID,0,
2008-12-23, 02:08:04,VALID,1007.16,VALID,0,VALID,95.5736,VALID,0,VALID,22.7199,VALID,34,VALID,0,
2008-12-23, 02:09:04,VALID,1007.12,VALID,0,VALID,95.5736,VALID,0,VALID,22.7394,VALID,34,VALID,0,
2008-12-23, 02:10:04,VALID,1007.12,VALID,0,VALID,95.5583,VALID,0,VALID,22.7411,VALID,34,VALID,0,
2008-12-23, 02:11:04,VALID,1007.11,VALID,0,VALID,95.5812,VALID,0,VALID,22.7394,VALID,34,VALID,0,
2008-12-23, 02:12:04,VALID,1007.09,VALID,0,VALID,95.5812,VALID,0,VALID,22.7588,VALID,34,VALID,0,
2008-12-23, 02:13:04,VALID,1007.1,VALID,0,VALID,95.5812,VALID,0,VALID,22.7394,VALID,34,VALID,0,
2008-12-23, 02:14:04,VALID,1007.04,VALID,0,VALID,95.5888,VALID,0,VALID,22.7199,VALID,34,VALID,0,
2008-12-23, 02:15:04,VALID,1007.04,VALID,0,VALID,95.5736,VALID,0,VALID,22.7199,VALID,34,VALID,0,
2008-12-23, 02:16:04,VALID,1007.04,VALID,0,VALID,95.5812,VALID,0,VALID,22.7199,VALID,34,VALID,0,
2008-12-23, 02:17:04,VALID,1007.05,VALID,0,VALID,95.6041,VALID,0,VALID,22.7004,VALID,34,VALID,0,
2008-12-23, 02:18:04,VALID,1007.03,VALID,0,VALID,95.5888,VALID,0,VALID,22.7004,VALID,34,VALID,0,
2008-12-23, 02:19:04,VALID,1006.98,VALID,0,VALID,95.5964,VALID,0,VALID,22.7216,VALID,34,VALID,0,
2008-12-23, 02:20:04,VALID,1006.98,VALID,0,VALID,95.5964,VALID,0,VALID,22.6809,VALID,34,VALID,0,
2008-12-23, 02:21:04,VALID,1006.94,VALID,0,VALID,95.5812,VALID,0,VALID,22.6632,VALID,34,VALID,0,
2008-12-23, 02:22:04,VALID,1006.9,VALID,0,VALID,95.5964,VALID,0,VALID,22.6614,VALID,34,VALID,0,
2008-12-23, 02:23:04,VALID,1006.88,VALID,0,VALID,95.6269,VALID,0,VALID,22.6225,VALID,34,VALID,0,
2008-12-23, 02:24:04,VALID,1006.88,VALID,0,VALID,95.6193,VALID,0,VALID,22.6225,VALID,34,VALID,0,
2008-12-23, 02:25:04,VALID,1006.87,VALID,0,VALID,95.6269,VALID,0,VALID,22.603,VALID,34,VALID,0,
2008-12-23, 02:26:04,VALID,1006.87,VALID,0,VALID,95.6117,VALID,0,VALID,22.5835,VALID,34,VALID,0,
2008-12-23, 02:27:04,VALID,1006.84,VALID,0,VALID,95.6117,VALID,0,VALID,22.5835,VALID,34,VALID,0,
2008-12-23, 02:28:04,VALID,1006.82,VALID,0,VALID,95.6041,VALID,0,VALID,22.5446,VALID,34,VALID,0,
2008-12-23, 02:29:04,VALID,1006.85,VALID,0,VALID,95.6269,VALID,0,VALID,22.5251,VALID,34,VALID,0,
2008-12-23, 02:30:04,VALID,1006.84,VALID,0,VALID,95.6346,VALID,0,VALID,22.564,VALID,34,VALID,0,
2008-12-23, 02:31:04,VALID,1006.81,VALID,0,VALID,95.6422,VALID,0,VALID,22.5446,VALID,34,VALID,0,
2008-12-23, 02:32:04,VALID,1006.79,VALID,0,VALID,95.6422,VALID,0,VALID,22.5446,VALID,34,VALID,0,
2008-12-23, 02:33:04,VALID,1006.82,VALID,0,VALID,95.6422,VALID,0,VALID,22.5446,VALID,34,VALID,0,
2008-12-23, 02:34:04,VALID,1006.8,VALID,0,VALID,95.6422,VALID,0,VALID,22.5056,VALID,34,VALID,0,
2008-12-23, 02:35:04,VALID,1006.79,VALID,0,VALID,95.6422,VALID,0,VALID,22.564,VALID,189,VALID,0.458594,
2008-12-23, 02:36:04,VALID,1006.81,VALID,0,VALID,95.6498,VALID,0,VALID,22.5446,VALID,106,VALID,0.196094,
2008-12-23, 02:37:04,VALID,1006.78,VALID,0,VALID,95.6422,VALID,0,VALID,22.5268,VALID,106,VALID,0,
2008-12-23, 02:38:04,VALID,1006.8,VALID,0,VALID,95.6422,VALID,0,VALID,22.4861,VALID,106,VALID,0,
2008-12-23, 02:39:04,VALID,1006.82,VALID,0,VALID,95.6422,VALID,0,VALID,22.4861,VALID,106,VALID,0,
2008-12-23, 02:40:04,VALID,1006.81,VALID,0,VALID,95.6727,VALID,0.105969,VALID,22.4861,VALID,106,VALID,0,
2008-12-23, 02:41:04,VALID,1006.82,VALID,0,VALID,95.6651,VALID,0.105969,VALID,22.465,VALID,106,VALID,0,
2008-12-23, 02:42:04,VALID,1006.85,VALID,0,VALID,95.6422,VALID,0.105969,VALID,22.4455,VALID,106,VALID,0,
2008-12-23, 02:43:04,VALID,1006.85,VALID,0,VALID,95.6651,VALID,0,VALID,22.4455,VALID,106,VALID,0,
2008-12-23, 02:44:04,VALID,1006.85,VALID,0,VALID,95.6727,VALID,0.105969,VALID,22.426,VALID,106,VALID,0,
2008-12-23, 02:45:04,VALID,1006.85,VALID,0,VALID,95.6803,VALID,0.105969,VALID,22.4438,VALID,107,VALID,0,
2008-12-23, 02:46:04,VALID,1006.84,VALID,0,VALID,95.6727,VALID,0,VALID,22.465,VALID,139,VALID,0,
2008-12-23, 02:47:04,VALID,1006.83,VALID,0,VALID,95.6727,VALID,0,VALID,22.4844,VALID,139,VALID,0,
2008-12-23, 02:48:04,VALID,1006.83,VALID,0,VALID,95.6727,VALID,0,VALID,22.5234,VALID,139,VALID,0,
2008-12-23, 02:49:04,VALID,1006.82,VALID,0,VALID,95.6727,VALID,0.105969,VALID,22.4844,VALID,147,VALID,0,
2008-12-23, 02:50:04,VALID,1006.82,VALID,0,VALID,95.688,VALID,0.105969,VALID,22.5022,VALID,147,VALID,0,
2008-12-23, 02:51:04,VALID,1006.82,VALID,0,VALID,95.6803,VALID,0.105969,VALID,22.5429,VALID,180,VALID,0,
2008-12-23, 02:52:04,VALID,1006.82,VALID,0,VALID,95.688,VALID,0.105969,VALID,22.6013,VALID,249,VALID,0,
2008-12-23, 02:53:04,VALID,1006.79,VALID,0,VALID,95.6651,VALID,0.105969,VALID,22.6208,VALID,249,VALID,0,
2008-12-23, 02:54:04,VALID,1006.79,VALID,0,VALID,95.6651,VALID,0.105969,VALID,22.6402,VALID,249,VALID,0,
2008-12-23, 02:55:04,VALID,1006.8,VALID,0,VALID,95.6803,VALID,0,VALID,22.642,VALID,259,VALID,0,
2008-12-23, 02:56:04,VALID,1006.82,VALID,0,VALID,95.6803,VALID,0,VALID,22.6614,VALID,263,VALID,0,
2008-12-23, 02:57:04,VALID,1006.84,VALID,0,VALID,95.6727,VALID,0,VALID,22.6614,VALID,263,VALID,0,
2008-12-23, 02:58:04,VALID,1006.84,VALID,0,VALID,95.6803,VALID,0,VALID,22.6614,VALID,263,VALID,0,
2008-12-23, 02:59:04,VALID,1006.83,VALID,0,VALID,95.6651,VALID,0,VALID,22.6809,VALID,263,VALID,0,
2008-12-23, 03:00:04,VALID,1006.8,VALID,0,VALID,95.7032,VALID,0,VALID,22.642,VALID,263,VALID,0,
2008-12-23, 03:01:04,VALID,1006.78,VALID,0,VALID,95.6956,VALID,0,VALID,22.7004,VALID,263,VALID,0,
2008-12-23, 03:02:04,VALID,1006.77,VALID,0,VALID,95.688,VALID,0,VALID,22.7004,VALID,263,VALID,0,
2008-12-23, 03:03:04,VALID,1006.75,VALID,0,VALID,95.6956,VALID,0,VALID,22.7394,VALID,263,VALID,0,
2008-12-23, 03:04:04,VALID,1006.76,VALID,0,VALID,95.6803,VALID,0,VALID,22.7199,VALID,263,VALID,0,
2008-12-23, 03:05:04,VALID,1006.77,VALID,0,VALID,95.688,VALID,0,VALID,22.6987,VALID,263,VALID,0,
2008-12-23, 03:06:04,VALID,1006.78,VALID,0,VALID,95.688,VALID,0,VALID,22.7199,VALID,263,VALID,0,
2008-12-23, 03:07:04,VALID,1006.76,VALID,0,VALID,95.6803,VALID,0,VALID,22.6792,VALID,263,VALID,0,
2008-12-23, 03:08:04,VALID,1006.78,VALID,0,VALID,95.6803,VALID,0,VALID,22.7004,VALID,263,VALID,0,
2008-12-23, 03:09:04,VALID,1006.8,VALID,0,VALID,95.6803,VALID,0,VALID,22.7004,VALID,263,VALID,0,
2008-12-23, 03:10:04,VALID,1006.81,VALID,0,VALID,95.688,VALID,0,VALID,22.7199,VALID,263,VALID,0,
2008-12-23, 03:11:04,VALID,1006.82,VALID,0,VALID,95.7108,VALID,0,VALID,22.7004,VALID,263,VALID,0,
2008-12-23, 03:12:04,VALID,1006.81,VALID,0,VALID,95.6956,VALID,0,VALID,22.7004,VALID,263,VALID,0,
2008-12-23, 03:13:04,VALID,1006.82,VALID,0,VALID,95.6956,VALID,0,VALID,22.6809,VALID,263,VALID,0,
2008-12-23, 03:14:04,VALID,1006.78,VALID,0,VALID,95.688,VALID,0,VALID,22.7199,VALID,263,VALID,0,
2008-12-23, 03:15:04,VALID,1006.77,VALID,0,VALID,95.6803,VALID,0,VALID,22.7199,VALID,263,VALID,0,
2008-12-23, 03:16:04,VALID,1006.76,VALID,0,VALID,95.688,VALID,0,VALID,22.6987,VALID,263,VALID,0,
2008-12-23, 03:17:04,VALID,1006.77,VALID,0,VALID,95.6727,VALID,0,VALID,22.7216,VALID,263,VALID,0,
2008-12-23, 03:18:04,VALID,1006.76,VALID,0,VALID,95.6956,VALID,0,VALID,22.7394,VALID,266,VALID,0,
2008-12-23, 03:19:04,VALID,1006.79,VALID,0,VALID,95.7032,VALID,0,VALID,22.7004,VALID,267,VALID,0,
2008-12-23, 03:20:04,VALID,1006.77,VALID,0,VALID,95.6956,VALID,0,VALID,22.6809,VALID,267,VALID,0,
2008-12-23, 03:21:04,VALID,1006.8,VALID,0,VALID,95.6956,VALID,0,VALID,22.6826,VALID,267,VALID,0,
2008-12-23, 03:22:04,VALID,1006.79,VALID,0,VALID,95.6956,VALID,0,VALID,22.642,VALID,267,VALID,0,
2008-12-23, 03:23:04,VALID,1006.83,VALID,0,VALID,95.7185,VALID,0,VALID,22.642,VALID,267,VALID,0,
2008-12-23, 03:24:04,VALID,1006.82,VALID,0,VALID,95.7032,VALID,0,VALID,22.6225,VALID,267,VALID,0,
2008-12-23, 03:25:04,VALID,1006.86,VALID,0,VALID,95.7337,VALID,0,VALID,22.603,VALID,267,VALID,0,
2008-12-23, 03:26:04,VALID,1006.89,VALID,0,VALID,95.6803,VALID,0,VALID,22.564,VALID,267,VALID,0,
2008-12-23, 03:27:04,VALID,1006.88,VALID,0,VALID,95.6956,VALID,0,VALID,22.5251,VALID,267,VALID,0,
2008-12-23, 03:28:04,VALID,1006.9,VALID,0,VALID,95.7032,VALID,0,VALID,22.5446,VALID,267,VALID,0,
2008-12-23, 03:29:04,VALID,1006.89,VALID,0,VALID,95.7108,VALID,0,VALID,22.5268,VALID,267,VALID,0,
2008-12-23, 03:30:04,VALID,1006.88,VALID,0,VALID,95.7108,VALID,0,VALID,22.5056,VALID,267,VALID,0,
2008-12-23, 03:31:04,VALID,1006.85,VALID,0,VALID,95.7185,VALID,0,VALID,22.5056,VALID,267,VALID,0,
2008-12-23, 03:32:04,VALID,1006.85,VALID,0,VALID,95.7108,VALID,0,VALID,22.4861,VALID,267,VALID,0,
2008-12-23, 03:33:04,VALID,1006.79,VALID,0,VALID,95.6956,VALID,0,VALID,22.4861,VALID,267,VALID,0,
2008-12-23, 03:34:04,VALID,1006.79,VALID,0,VALID,95.6956,VALID,0,VALID,22.4277,VALID,267,VALID,0,
2008-12-23, 03:35:04,VALID,1006.81,VALID,0,VALID,95.6956,VALID,0,VALID,22.4472,VALID,267,VALID,0,
2008-12-23, 03:36:04,VALID,1006.78,VALID,0,VALID,95.7032,VALID,0,VALID,22.4472,VALID,267,VALID,0,
2008-12-23, 03:37:04,VALID,1006.79,VALID,0,VALID,95.7032,VALID,0,VALID,22.4667,VALID,57,VALID,0,
2008-12-23, 03:38:04,VALID,1006.75,VALID,0,VALID,95.6956,VALID,0,VALID,22.4472,VALID,57,VALID,0,
2008-12-23, 03:39:04,VALID,1006.74,VALID,0,VALID,95.6956,VALID,0,VALID,22.4684,VALID,57,VALID,0,
2008-12-23, 03:40:04,VALID,1006.74,VALID,0,VALID,95.6956,VALID,0,VALID,22.426,VALID,57,VALID,0,
2008-12-23, 03:41:04,VALID,1006.73,VALID,0,VALID,95.6956,VALID,0.105969,VALID,22.4455,VALID,57,VALID,0,
2008-12-23, 03:42:04,VALID,1006.73,VALID,0,VALID,95.7032,VALID,0.105969,VALID,22.4438,VALID,57,VALID,0,
2008-12-23, 03:43:04,VALID,1006.74,VALID,0,VALID,95.7108,VALID,0.105969,VALID,22.4455,VALID,57,VALID,0,
2008-12-23, 03:44:04,VALID,1006.7,VALID,0,VALID,95.7185,VALID,0,VALID,22.426,VALID,57,VALID,0,
2008-12-23, 03:45:04,VALID,1006.7,VALID,0,VALID,95.7032,VALID,0.105969,VALID,22.426,VALID,57,VALID,0,
2008-12-23, 03:46:04,VALID,1006.69,VALID,0,VALID,95.7108,VALID,0.105969,VALID,22.4065,VALID,57,VALID,0,
2008-12-23, 03:47:04,VALID,1006.69,VALID,0,VALID,95.7032,VALID,0.105969,VALID,22.387,VALID,57,VALID,0,
2008-12-23, 03:48:04,VALID,1006.68,VALID,0,VALID,95.6956,VALID,0.105969,VALID,22.387,VALID,57,VALID,0,
2008-12-23, 03:49:04,VALID,1006.65,VALID,0,VALID,95.7032,VALID,0.105969,VALID,22.3676,VALID,57,VALID,0,
2008-12-23, 03:50:04,VALID,1006.65,VALID,0,VALID,95.7032,VALID,0.105969,VALID,22.3676,VALID,57,VALID,0,
2008-12-23, 03:51:04,VALID,1006.65,VALID,0,VALID,95.7108,VALID,0.105969,VALID,22.3481,VALID,57,VALID,0,
2008-12-23, 03:52:04,VALID,1006.61,VALID,0,VALID,95.7108,VALID,0.105969,VALID,22.3481,VALID,57,VALID,0,
2008-12-23, 03:53:04,VALID,1006.61,VALID,0,VALID,95.688,VALID,0.105969,VALID,22.3481,VALID,57,VALID,0,
2008-12-23, 03:54:04,VALID,1006.61,VALID,0,VALID,95.688,VALID,0.105969,VALID,22.3481,VALID,57,VALID,0,
2008-12-23, 03:55:04,VALID,1006.59,VALID,0,VALID,95.7032,VALID,0,VALID,22.3303,VALID,57,VALID,0,
2008-12-23, 03:56:04,VALID,1006.61,VALID,0,VALID,95.7032,VALID,0,VALID,22.3303,VALID,57,VALID,0,
2008-12-23, 03:57:04,VALID,1006.61,VALID,0,VALID,95.7032,VALID,0,VALID,22.3303,VALID,57,VALID,0,
2008-12-23, 03:58:04,VALID,1006.6,VALID,0,VALID,95.7108,VALID,0,VALID,22.3498,VALID,57,VALID,0,
2008-12-23, 03:59:04,VALID,1006.63,VALID,0,VALID,95.7261,VALID,0,VALID,22.3498,VALID,57,VALID,0,